Location: Seattle
(47.6064°N, 122.3308°W)
Time: 02:18:21
(UTC-08:00)

A-11 Canister half - Pass Details

Date: 04 December 2020
Orbit: 1524 x 1684 km, 47.3° (Epoch: 21 January)

Event Time Altitude Azimuth Distance (km) Brightness Sun altitude
Rises 09:02:42 0° 284° (WNW) 4,931 11.2 9.5°
Reaches altitude 10° 09:05:53 10° 283° (WNW) 3,931 10.7 9.9°
Maximum altitude 09:15:56 75° 200° (SSW) 1,692 9.6 10.9°
Drops below altitude 10° 09:25:38 10° 118° (ESE) 3,808 12.5 11.9°
Sets 09:28:40 0° 117° (ESE) 4,771 12.8 12.2°
